Flight Track Log - Related Links

Times and Time Zones

All times are in EST time to prevent confusion due to time zone crossing. See the N449ND flight status page for this flight to view local times or setup timezone preferences in your user account.

Time Position Orientation Groundspeed Altitude Reporting Facility
EST Latitude Longitude Course Direction KTS MPH feet Rate Location/Type
Sat 06:41:02 PM 28.4333 -80.7500 180° South 71 82 2,400  Level Orlando TRACON
Sat 06:42:02 PM 28.4167 -80.7500 180° South 62 71 2,700 150 Climbing Orlando TRACON
Sat 06:43:02 PM 28.4000 -80.7333 139° Southeast 91 105 2,700  Level Orlando TRACON
Sat 06:43:56 PM 28.3833 -80.7333 180° South 83 96 2,700 53 Level Orlando TRACON
Sat 06:44:56 PM 28.3500 -80.7167 156° South 78 90 2,800 50 Climbing Orlando TRACON
Sat 06:45:56 PM 28.3333 -80.7167 180° South 86 99 2,800  Level Orlando TRACON
Sat 06:46:56 PM 28.3167 -80.7000 139° Southeast 87 100 2,800  Level Orlando TRACON
Sat 06:47:56 PM 28.2833 -80.6833 156° South 88 101 2,800  Level Orlando TRACON
Sat 06:48:56 PM 28.2667 -80.6833 180° South 84 97 2,800  Level Orlando TRACON
Sat 06:51:45 PM 28.2028 -80.6472 154° Southeast 89 102 2,800  Level Miami Center
Sat 06:52:45 PM 28.1819 -80.6372 157° South 94 108 2,800  Level Miami Center
Sat 06:53:45 PM 28.1592 -80.6339 173° South 86 99 2,800 -50 Level Miami Center
Sat 06:54:45 PM 28.1344 -80.6214 156° South 86 99 2,700 -50 Descending Miami Center
Sat 06:55:45 PM 28.1119 -80.6089 154° Southeast 91 105 2,700  Level Miami Center
Sat 06:56:45 PM 28.0892 -80.5986 158° South 91 105 2,700  Level Miami Center
Sat 06:57:45 PM 28.0686 -80.5911 162° South 91 105 2,700  Level Miami Center
Sat 06:58:45 PM 28.0458 -80.5761 150° Southeast 91 105 2,700  Level Miami Center
Sat 06:59:45 PM 28.0233 -80.5614 150° Southeast 91 105 2,700  Level Miami Center
Sat 07:00:45 PM 28.0006 -80.5511 158° South 91 105 2,700  Level Miami Center
Sat 07:01:45 PM 27.9800 -80.5433 162° South 86 99 2,700  Level Miami Center
Sat 07:02:45 PM 27.9594 -80.5333 157° South 86 99 2,700  Level Miami Center
Sat 07:03:45 PM 27.9347 -80.5208 156° South 86 99 2,700  Level Miami Center
Sat 07:04:45 PM 27.9119 -80.5106 158° South 91 105 2,700 50 Level Miami Center
Sat 07:05:45 PM 27.8892 -80.5006 159° South 85 98 2,800  Climbing Miami Center
Sat 07:06:45 PM 27.8686 -80.4906 157° South 85 98 2,700  Descending Miami Center
Sat 07:07:45 PM 27.8481 -80.4733 143° Southeast 91 105 2,800 50 Climbing Miami Center
Sat 07:08:45 PM 27.8236 -80.4586 152° Southeast 91 105 2,800  Level Miami Center
Sat 07:09:45 PM 27.8028 -80.4508 162° South 91 105 2,800  Level Miami Center
Sat 07:10:45 PM 27.7800 -80.4408 159° South 86 99 2,800 50 Level Miami Center
Sat 07:11:45 PM 27.7594 -80.4306 156° South 91 105 2,900  Climbing Miami Center
Sat 07:12:45 PM 27.7367 -80.4206 159° South 91 105 2,800 -50 Descending Miami Center
Sat 07:13:45 PM 27.7269 -80.3922 111° Southeast 91 105 2,800 50 Level Miami Center
Sat 07:14:45 PM 27.7153 -80.3614 113° Southeast 119 137 2,900 50 Climbing Miami Center
Sat 07:15:45 PM 27.6972 -80.3350 128° Southeast 113 130 2,900  Level Miami Center
Sat 07:16:45 PM 27.6786 -80.3203 145° Southeast 105 121 2,900 50 Level Miami Center
Sat 07:17:45 PM 27.6583 -80.3008 140° Southeast 100 115 3,000  Climbing Miami Center
Sat 07:18:45 PM 27.6422 -80.2722 122° Southeast 95 109 2,900 -100 Descending Miami Center
Sat 07:19:45 PM 27.6261 -80.2461 125° Southeast 101 116 2,800 -50 Descending Miami Center
Sat 07:20:45 PM 27.6081 -80.2197 128° Southeast 107 123 2,800 -50 Level Miami Center
Sat 07:21:45 PM 27.5897 -80.2006 137° Southeast 102 117 2,700 -50 Descending Miami Center
Sat 07:22:45 PM 27.5778 -80.1697 114° Southeast 102 117 2,700  Level Miami Center
Sat 07:23:45 PM 27.5597 -80.1411 125° Southeast 102 117 2,700 -200 Level Miami Center
Sat 07:24:45 PM 27.5431 -80.1358 164° South 75 86 2,300 -300 Descending Miami Center
Sat 07:25:45 PM 27.5242 -80.1378 185° South 68 78 2,100 -50 Descending Miami Center
Sat 07:26:45 PM 27.5033 -80.1442 195° South 73 84 2,200 50 Climbing Miami Center
Sat 07:27:45 PM 27.4842 -80.1531 202° Southwest 73 84 2,200  Level Miami Center
Sat 07:28:45 PM 27.4633 -80.1569 189° South 73 84 2,200 -50 Level Miami Center
Sat 07:29:45 PM 27.4586 -80.1733 252° West 66 76 2,100 -250 Descending Miami Center
Sat 07:30:45 PM 27.4603 -80.1944 275° West 68 78 1,700 -150 Descending Miami Center
Sat 07:31:45 PM 27.4661 -80.2181 286° West 73 84 1,800 50 Climbing Miami Center
Sat 07:32:45 PM 27.4717 -80.2439 284° West 78 90 1,800  Level Miami Center
Sat 07:33:45 PM 27.4775 -80.2675 286° West 78 90 1,800 -200 Level Miami Center
Sat 07:34:45 PM 27.4831 -80.2886 287° West 78 90 1,400 -400 Descending Miami Center
Sat 07:35:45 PM 27.4847 -80.3075 276° West 72 83 1,000 -250 Descending Miami Center
Sat 07:36:45 PM 27.4928 -80.3264 296° West 67 77 900 -100 Descending Miami Center

Login

Don't have an account? Register now (free) for customized features, flight alerts, and more!